Weather History for Cheboygan, MI

Change the Weather History Date:

Saturday, February 9, 2013

  Actual Average (KPLN) Record (KPLN)
Temperature  
Mean Temperature 8 °F -  
Max Temperature 26 °F 26 °F 51 °F (1966)
Min Temperature -9 °F 2 °F -30 °F (1951)
Degree Days  
Heating Degree Days 56    
Moisture  
Dew Point 4 °F    
Average Humidity 77    
Maximum Humidity 89    
Minimum Humidity 61    
Precipitation  
Precipitation 0.00 in - - ()
Sea Level Pressure  
Sea Level Pressure 30.32 in    
Wind  
Wind Speed 2 mph (SE)    
Max Wind Speed 7 mph    
Max Gust Speed -    
Visibility 10 miles    
Events      
Averages and records for this station are not official NWS values.
T = Trace of Precipitation, MM = Missing Value Source: NWS Daily Summary

Daily Weather History Graph

Daily Weather History Graph

Search for Another Location

Airport:

Trip Planner

Search our weather history database for the weather conditions in past years. The results will help you decide how hot, cold, wet, or windy it might be!

Date:

Astronomy

Feb. 09, 2013 Rise Set
Actual Time 7:48 AM EST 5:56 PM EST
Civil Twilight 7:17 AM EST 6:27 PM EST
Nautical Twilight 6:42 AM EST 7:02 PM EST
Astronomical Twilight 6:08 AM EST 7:37 PM EST
Moon 6:59 AM EST (2/9) 5:40 PM EST (2/9)
Length of Visible Light 11h 09m
Length of Day
10h 07m
Waning Crescent, 0% of the Moon is Illuminated
Feb 9
Waning Crescent
Feb 10
New
Feb 17
First Quarter
Feb 25
Full
Mar 4
Last Quarter

Hourly Weather History & Observations

Time (EST) Temp. Windchill Dew Point Humidity Pressure Visibility Wind Dir Wind Speed Gust Speed Precip Events Conditions
12:35 AM 2.3 °F - -0.2 °F 89% 30.38 in 10.0 mi Calm Calm - N/A   Clear
12:55 AM -1.3 °F - -4.7 °F 85% 30.38 in 10.0 mi Calm Calm - N/A   Clear
1:15 AM -3.6 °F - -6.7 °F 87% 30.38 in 10.0 mi Calm Calm - N/A   Clear
1:35 AM -4.7 °F - -8.3 °F 84% 30.37 in 10.0 mi Calm Calm - N/A   Clear
1:56 AM -2.9 °F - -6.5 °F 85% 30.38 in 10.0 mi Calm Calm - N/A   Clear
2:15 AM -1.5 °F -9.5 °F -4.4 °F 88% 30.39 in 10.0 mi SW 3.5 mph - N/A   Clear
2:35 AM -3.1 °F - -6.2 °F 87% 30.39 in 10.0 mi Calm Calm - N/A   Clear
2:55 AM -6.5 °F - -10.8 °F 82% 30.38 in 10.0 mi Calm Calm - N/A   Clear
3:15 AM -5.4 °F - -9.0 °F 84% 30.38 in 10.0 mi Calm Calm - N/A   Clear
3:36 AM -7.8 °F - -11.7 °F 83% 30.39 in 10.0 mi Calm Calm - N/A   Clear
3:55 AM -7.2 °F - -11.6 °F 81% 30.39 in 10.0 mi Calm Calm - N/A   Clear
4:15 AM -8.5 °F - -12.6 °F 82% 30.39 in 10.0 mi Calm Calm - N/A   Clear
4:35 AM -7.4 °F - -11.2 °F 84% 30.39 in 10.0 mi Calm Calm - N/A   Clear
4:55 AM -7.6 °F - -11.7 °F 82% 30.39 in 10.0 mi Calm Calm - N/A   Clear
5:15 AM -8.1 °F - -12.5 °F 81% 30.39 in 10.0 mi Calm Calm - N/A   Clear
5:35 AM -8.1 °F -19.4 °F -12.1 °F 83% 30.39 in 10.0 mi SW 4.6 mph - N/A   Clear
5:55 AM -8.9 °F - -13.2 °F 81% 30.39 in 10.0 mi Calm Calm - N/A   Clear
6:15 AM -8.1 °F - -11.9 °F 84% 30.38 in 10.0 mi Calm Calm - N/A   Clear
6:35 AM -9.4 °F -18.6 °F -13.5 °F 82% 30.40 in 10.0 mi SW 3.5 mph - N/A   Clear
6:55 AM -8.5 °F - -12.6 °F 82% 30.40 in 10.0 mi Calm Calm - N/A   Clear
7:15 AM -8.7 °F - -13.2 °F 81% 30.40 in 10.0 mi Calm Calm - N/A   Clear
7:35 AM -9.8 °F - -14.1 °F 81% 30.39 in 10.0 mi Calm Calm - N/A   Clear
7:55 AM -9.2 °F - -13.5 °F 81% 30.40 in 10.0 mi Calm Calm - N/A   Clear
8:15 AM -8.7 °F - -13.0 °F 81% 30.41 in 10.0 mi Calm Calm - N/A   Clear
8:35 AM -5.6 °F - -9.2 °F 84% 30.40 in 10.0 mi Calm Calm - N/A   Clear
8:55 AM -3.3 °F - -6.9 °F 85% 30.40 in 10.0 mi Calm Calm - N/A   Clear
9:15 AM -0.4 °F - -3.5 °F 87% 30.40 in 7.0 mi Calm Calm - N/A   Clear
9:35 AM 3.0 °F - 0.1 °F 88% 30.39 in 7.0 mi Calm Calm - N/A   Clear
9:55 AM 5.5 °F -3.4 °F 3.0 °F 89% 30.38 in 10.0 mi SSE 4.6 mph - N/A   Clear
10:15 AM 6.8 °F -2.0 °F 3.9 °F 88% 30.39 in 10.0 mi South 4.6 mph - N/A   Clear
10:35 AM 9.5 °F 1.2 °F 6.8 °F 89% 30.39 in 10.0 mi SSE 4.6 mph - N/A   Clear
10:55 AM 12.0 °F 1.5 °F 8.6 °F 86% 30.38 in 10.0 mi SSE 6.9 mph - N/A   Clear
11:15 AM 13.5 °F 4.4 °F 9.3 °F 84% 30.38 in 10.0 mi SE 5.8 mph - N/A   Clear
11:35 AM 14.9 °F 6.1 °F 10.4 °F 82% 30.37 in 10.0 mi SE 5.8 mph - N/A   Clear
11:55 AM 17.4 °F 9.1 °F 11.7 °F 78% 30.36 in 10.0 mi SE 5.8 mph - N/A   Clear
12:15 PM 19.4 °F 12.8 °F 12.7 °F 75% 30.35 in 10.0 mi SE 4.6 mph - N/A   Clear
12:35 PM 20.3 °F 11.5 °F 12.9 °F 73% 30.34 in 10.0 mi ESE 6.9 mph - N/A   Clear
12:55 PM 21.2 °F 14.9 °F 12.9 °F 70% 30.33 in 10.0 mi ESE 4.6 mph - N/A   Clear
1:15 PM 21.9 °F 14.5 °F 12.7 °F 68% 30.32 in 10.0 mi ESE 5.8 mph - N/A   Clear
1:35 PM 22.6 °F 18.0 °F 13.5 °F 68% 30.32 in 10.0 mi ESE 3.5 mph - N/A   Clear
1:55 PM 23.0 °F 14.7 °F 13.1 °F 66% 30.31 in 10.0 mi SE 6.9 mph - N/A   Clear
2:15 PM 23.7 °F 17.8 °F 13.6 °F 65% 30.30 in 10.0 mi ESE 4.6 mph - N/A   Clear
2:35 PM 24.8 °F 20.5 °F 13.5 °F 62% 30.29 in 10.0 mi ESE 3.5 mph - N/A   Clear
2:55 PM 24.8 °F 17.9 °F 13.8 °F 63% 30.28 in 10.0 mi ESE 5.8 mph - N/A   Clear
3:15 PM 25.7 °F 21.5 °F 14.4 °F 62% 30.27 in 10.0 mi SE 3.5 mph - N/A   Clear
3:35 PM 25.5 °F 18.7 °F 14.4 °F 63% 30.26 in 10.0 mi SE 5.8 mph - N/A   Clear
3:55 PM 26.4 °F 22.4 °F 14.7 °F 61% 30.27 in 10.0 mi East 3.5 mph - N/A   Clear
4:15 PM 25.7 °F 20.1 °F 14.0 °F 61% 30.27 in 10.0 mi ESE 4.6 mph - N/A   Clear
4:35 PM 25.7 °F 20.1 °F 14.4 °F 62% 30.26 in 10.0 mi ESE 4.6 mph - N/A   Clear
4:55 PM 26.8 °F 20.2 °F 14.9 °F 61% 30.26 in 10.0 mi ESE 5.8 mph - N/A   Clear
5:15 PM 25.9 °F 21.7 °F 15.4 °F 65% 30.24 in 10.0 mi SE 3.5 mph - N/A   Clear
5:35 PM 26.2 °F 20.7 °F 15.3 °F 63% 30.23 in 10.0 mi SE 4.6 mph - N/A   Clear
5:55 PM 25.3 °F - 15.1 °F 65% 30.23 in 10.0 mi Calm Calm - N/A   Clear
6:15 PM 24.6 °F 20.3 °F 15.3 °F 68% 30.23 in 10.0 mi ESE 3.5 mph - N/A   Clear
6:35 PM 22.8 °F 18.2 °F 15.3 °F 73% 30.23 in 10.0 mi SE 3.5 mph - N/A   Clear
6:55 PM 22.8 °F 18.2 °F 15.3 °F 73% 30.23 in 10.0 mi ESE 3.5 mph - N/A   Clear
7:15 PM 21.2 °F 14.9 °F 15.1 °F 77% 30.22 in 10.0 mi SE 4.6 mph - N/A   Scattered Clouds
7:35 PM 20.7 °F 14.2 °F 13.3 °F 73% 30.22 in 10.0 mi ESE 4.6 mph - N/A   Scattered Clouds
7:55 PM 20.8 °F 16.0 °F 14.2 °F 75% 30.21 in 10.0 mi SSE 3.5 mph - N/A   Mostly Cloudy
8:15 PM 21.2 °F 16.4 °F 14.0 °F 74% 30.21 in 10.0 mi South 3.5 mph - N/A   Scattered Clouds
8:35 PM 21.2 °F 14.9 °F 14.0 °F 74% 30.21 in 10.0 mi South 4.6 mph - N/A   Clear
8:55 PM 20.3 °F 15.4 °F 13.6 °F 75% 30.20 in 10.0 mi South 3.5 mph - N/A   Clear
9:15 PM 20.1 °F 13.6 °F 13.1 °F 74% 30.20 in 10.0 mi SSE 4.6 mph - N/A   Clear
9:35 PM 19.9 °F 13.4 °F 12.7 °F 74% 30.20 in 10.0 mi South 4.6 mph - N/A   Clear
9:55 PM 19.9 °F 14.9 °F 12.6 °F 73% 30.20 in 10.0 mi South 3.5 mph - N/A   Clear
10:15 PM 19.4 °F 12.8 °F 12.7 °F 75% 30.20 in 10.0 mi SSE 4.6 mph - N/A   Mostly Cloudy
10:35 PM 19.4 °F 12.8 °F 12.9 °F 76% 30.19 in 10.0 mi SSE 4.6 mph - N/A   Mostly Cloudy
10:55 PM 18.7 °F 11.9 °F 12.6 °F 77% 30.19 in 10.0 mi SSE 4.6 mph - N/A   Scattered Clouds
11:15 PM 18.3 °F 11.5 °F 12.7 °F 79% 30.19 in 10.0 mi South 4.6 mph - N/A   Clear
11:35 PM 17.8 °F 12.5 °F 12.4 °F 79% 30.18 in 10.0 mi SSE 3.5 mph - N/A   Clear
11:55 PM 15.6 °F - 11.3 °F 83% 30.18 in 10.0 mi Calm Calm - N/A   Scattered Clouds